Weather History for Madison, SD

Change the Weather History Date:

Thursday, August 22, 2013

  Actual Average Record
Temperature  
Mean Temperature 69 °F -  
Max Temperature 78 °F 81 °F 89 °F (2012)
Min Temperature 60 °F 57 °F 55 °F (2011)
Cooling Degree Days 4    
Growing Degree Days 19 (Base 50)    
Moisture  
Dew Point 63 °F    
Average Humidity 83    
Maximum Humidity 100    
Minimum Humidity 61    
Precipitation  
Precipitation 0.00 in - - ()
Sea Level Pressure  
Sea Level Pressure 30.12 in    
Wind  
Wind Speed 10 mph (ENE)    
Max Wind Speed 16 mph    
Max Gust Speed 23 mph    
Visibility 10 miles    
Events Thunderstorm    
Averages and records for this station are not official NWS values.
T = Trace of Precipitation, MM = Missing Value Source: NWS Daily Summary

Daily Weather History Graph

Daily Weather History Graph

Search for Another Location

Airport:

Trip Planner

Search our weather history database for the weather conditions in past years. The results will help you decide how hot, cold, wet, or windy it might be!

Date:

Astronomy

Aug. 22, 2013 Rise Set
Actual Time 6:40 AM CDT 8:20 PM CDT
Civil Twilight 6:09 AM CDT 8:51 PM CDT
Nautical Twilight 5:32 AM CDT 9:28 PM CDT
Astronomical Twilight 4:52 AM CDT 10:08 PM CDT
Moon 8:58 PM CDT (8/22) 8:36 AM CDT (8/22)
Length of Visible Light 14h 41m
Length of Day
13h 40m
Waning Gibbous, 96% of the Moon is Illuminated
Aug 22
Waning Gibbous
Aug 28
Last Quarter
Sep 5
New
Sep 12
First Quarter
Sep 19
Full

Hourly Weather History & Observations

Time (CDT) Temp. Dew Point Humidity Pressure Visibility Wind Dir Wind Speed Gust Speed Precip Events Conditions
1:45 AM 66.2 °F 66.2 °F 100% 30.04 in 10.0 mi NE 6.9 mph - N/A   Clear
1:50 AM 66.2 °F 66.2 °F 100% 30.04 in 10.0 mi NNE 8.1 mph - N/A   Clear
2:10 AM 66.2 °F 66.2 °F 100% 30.04 in 10.0 mi NNE 9.2 mph - N/A   Clear
2:30 AM 66.2 °F 64.4 °F 94% 30.04 in 10.0 mi NE 11.5 mph - N/A   Clear
2:50 AM 66.2 °F 64.4 °F 94% 30.05 in 10.0 mi NE 9.2 mph - N/A   Scattered Clouds
3:10 AM 66.2 °F 64.4 °F 94% 30.05 in 10.0 mi NE 8.1 mph - N/A   Mostly Cloudy
3:30 AM 66.2 °F 64.4 °F 94% 30.06 in 10.0 mi ENE 11.5 mph - N/A   Overcast
3:50 AM 66.2 °F 64.4 °F 94% 30.07 in 10.0 mi NE 10.4 mph - N/A   Overcast
4:10 AM 66.2 °F 64.4 °F 94% 30.08 in 10.0 mi ENE 9.2 mph - N/A   Overcast
4:30 AM 66.2 °F 64.4 °F 94% 30.09 in 10.0 mi ENE 6.9 mph - N/A Thunderstorm Overcast
4:50 AM 66.2 °F 66.2 °F 100% 30.08 in 10.0 mi ESE 3.5 mph - N/A   Overcast
5:10 AM 64.4 °F 64.4 °F 100% 30.08 in 10.0 mi ENE 6.9 mph - N/A   Mostly Cloudy
5:30 AM 64.4 °F 64.4 °F 100% 30.09 in 10.0 mi NE 9.2 mph - N/A   Overcast
5:50 AM 66.2 °F 64.4 °F 94% 30.11 in 10.0 mi NE 9.2 mph - N/A   Overcast
6:10 AM 64.4 °F 64.4 °F 100% 30.11 in 10.0 mi ENE 11.5 mph - N/A   Mostly Cloudy
6:30 AM 64.4 °F 64.4 °F 100% 30.12 in 10.0 mi ENE 9.2 mph - N/A   Overcast
6:50 AM 64.4 °F 64.4 °F 100% 30.12 in 10.0 mi NE 9.2 mph - N/A   Scattered Clouds
7:10 AM 64.4 °F 64.4 °F 100% 30.12 in 10.0 mi NE 6.9 mph - N/A   Partly Cloudy
7:30 AM 64.4 °F 62.6 °F 94% 30.13 in 10.0 mi NE 11.5 mph 16.1 mph N/A   Clear
7:50 AM 64.4 °F 62.6 °F 94% 30.12 in 10.0 mi NE 11.5 mph - N/A   Clear
8:10 AM 64.4 °F 60.8 °F 88% 30.13 in 10.0 mi ENE 11.5 mph 19.6 mph N/A   Clear
8:30 AM 64.4 °F 60.8 °F 88% 30.13 in 10.0 mi ENE 12.7 mph - N/A   Clear
8:50 AM 66.2 °F 60.8 °F 83% 30.13 in 10.0 mi ENE 12.7 mph 19.6 mph N/A   Clear
9:10 AM 66.2 °F 60.8 °F 83% 30.13 in 10.0 mi ENE 13.8 mph 20.7 mph N/A   Clear
9:30 AM 68.0 °F 60.8 °F 78% 30.13 in 10.0 mi ENE 15.0 mph 20.7 mph N/A   Clear
9:50 AM 68.0 °F 59.0 °F 73% 30.13 in 10.0 mi East 16.1 mph 21.9 mph N/A   Clear
10:10 AM 69.8 °F 59.0 °F 68% 30.13 in 10.0 mi ENE 13.8 mph 23.0 mph N/A   Clear
10:30 AM 71.6 °F 59.0 °F 64% 30.14 in 10.0 mi East 15.0 mph - N/A   Clear
10:50 AM 73.4 °F 59.0 °F 61% 30.14 in 10.0 mi East 12.7 mph 19.6 mph N/A   Clear
11:10 AM 73.4 °F 59.0 °F 61% 30.14 in 10.0 mi East 12.7 mph 20.7 mph N/A   Clear
11:30 AM 73.4 °F 60.8 °F 65% 30.14 in 10.0 mi East 13.8 mph 18.4 mph N/A   Clear
11:50 AM 75.2 °F 60.8 °F 61% 30.14 in 10.0 mi East 12.7 mph 17.3 mph N/A   Clear
12:10 PM 75.2 °F 60.8 °F 61% 30.14 in 10.0 mi East 13.8 mph - N/A   Clear
12:30 PM 75.2 °F 60.8 °F 61% 30.14 in 10.0 mi East 12.7 mph 17.3 mph N/A   Clear
12:50 PM 75.2 °F 62.6 °F 65% 30.14 in 10.0 mi East 12.7 mph - N/A   Clear
1:10 PM 75.2 °F 62.6 °F 65% 30.14 in 10.0 mi ENE 13.8 mph 19.6 mph N/A   Clear
1:30 PM 75.2 °F 62.6 °F 65% 30.13 in 10.0 mi East 13.8 mph 18.4 mph N/A   Clear
1:50 PM 75.2 °F 62.6 °F 65% 30.13 in 10.0 mi East 10.4 mph 18.4 mph N/A   Clear
2:10 PM 75.2 °F 62.6 °F 65% 30.13 in 10.0 mi East 13.8 mph 17.3 mph N/A   Clear
2:30 PM 77.0 °F 62.6 °F 61% 30.14 in 10.0 mi East 15.0 mph 18.4 mph N/A   Clear
2:50 PM 77.0 °F 62.6 °F 61% 30.13 in 10.0 mi East 13.8 mph 17.3 mph N/A   Clear
3:10 PM 77.0 °F 64.4 °F 65% 30.13 in 10.0 mi East 12.7 mph - N/A   Clear
3:30 PM 77.0 °F 64.4 °F 65% 30.13 in 10.0 mi ENE 11.5 mph - N/A   Clear
3:50 PM 77.0 °F 64.4 °F 65% 30.13 in 10.0 mi East 12.7 mph - N/A   Clear
4:10 PM 78.8 °F 64.4 °F 61% 30.13 in 10.0 mi East 12.7 mph - N/A   Clear
4:30 PM 77.0 °F 64.4 °F 65% 30.13 in 10.0 mi East 12.7 mph 18.4 mph N/A   Clear
4:50 PM 77.0 °F 64.4 °F 65% 30.13 in 10.0 mi East 11.5 mph 18.4 mph N/A   Clear
5:10 PM 77.0 °F 64.4 °F 65% 30.12 in 10.0 mi East 15.0 mph - N/A   Clear
5:30 PM 77.0 °F 64.4 °F 65% 30.12 in 10.0 mi East 12.7 mph - N/A   Clear
5:50 PM 77.0 °F 64.4 °F 65% 30.11 in 10.0 mi East 12.7 mph 18.4 mph N/A   Clear
6:10 PM 75.2 °F 64.4 °F 69% 30.11 in 10.0 mi East 9.2 mph - N/A   Clear
6:30 PM 75.2 °F 64.4 °F 69% 30.12 in 10.0 mi East 10.4 mph - N/A   Clear
6:50 PM 73.4 °F 64.4 °F 73% 30.12 in 10.0 mi East 8.1 mph - N/A   Clear
7:10 PM 73.4 °F 64.4 °F 73% 30.11 in 10.0 mi East 6.9 mph - N/A   Clear
7:30 PM 71.6 °F 64.4 °F 78% 30.12 in 10.0 mi East 5.8 mph - N/A   Clear
7:50 PM 68.0 °F 66.2 °F 94% 30.12 in 10.0 mi East 5.8 mph - N/A   Clear
8:10 PM 66.2 °F 66.2 °F 100% 30.12 in 10.0 mi East 6.9 mph - N/A   Clear
8:30 PM 66.2 °F 66.2 °F 100% 30.13 in 10.0 mi East 6.9 mph - N/A   Clear
8:50 PM 64.4 °F 64.4 °F 100% 30.13 in 10.0 mi ENE 8.1 mph - N/A   Clear
9:10 PM 64.4 °F 64.4 °F 100% 30.14 in 10.0 mi ENE 8.1 mph - N/A   Clear
9:30 PM 64.4 °F 64.4 °F 100% 30.13 in 10.0 mi East 8.1 mph - N/A   Clear
9:50 PM 62.6 °F 62.6 °F 100% 30.14 in 10.0 mi East 9.2 mph - N/A   Clear
10:10 PM 62.6 °F 62.6 °F 100% 30.13 in 10.0 mi East 8.1 mph - N/A   Clear
10:30 PM 62.6 °F 62.6 °F 100% 30.13 in 10.0 mi ENE 6.9 mph - N/A   Clear
10:50 PM 62.6 °F 62.6 °F 100% 30.14 in 10.0 mi ENE 8.1 mph - N/A   Clear
11:10 PM 62.6 °F 62.6 °F 100% 30.14 in 10.0 mi East 5.8 mph - N/A   Clear
11:30 PM 60.8 °F 60.8 °F 100% 30.14 in 10.0 mi ENE 6.9 mph - N/A   Clear
11:50 PM 60.8 °F 60.8 °F 100% 30.13 in 10.0 mi ENE 6.9 mph - N/A   Clear